Other Public Products
Issued by NWS Charleston, SC

Current Version | Previous Version | Text Only | Print | Product List | Glossary Off
Versions: 1 2 3 4 5 6 7 8 9 10 11 12 13 14 15 16 17 18 19 20 21 22 23 24 25 26 27 28 29 30 31 32 33 34 35 36 37 38 39 40 41 42 43 44 45 46 47 48 49 50

000
FPUS82 KCHS 220827
OPUCHS

TEST...KCHS/KSAV Gateway Observations...TEST
National Weather Service Charleston SC
300 AM EST WED NOV 22 2017

NOTE: "fair" indicates few or no clouds below 12,000 feet with no
significant weather and/or obstructions to visibility.

SCZ050-WAZ558-NCZ071-TXZ119-213-PAZ071-DCZ001-FLZ074-172-MI076-
NYZ176-178-MAZ016-IL014-TNZ027-NJZ106-GAZ044-MD014-220900-

...Gateway Observations for Charleston International...

CITY           SKY/WX    TMP DP  RH WIND       PRES   REMARKS
Chas Airport   DRIZZLE   62  62 100 W7        29.94S FOG
Seattle        LGT RAIN  57  56  96 E3        29.95R
Charlotte      FOG       49  49 100 NW3       29.98S VSB 1/4
Dallas DFW     CLEAR     51  29  42 N14       30.25R
Dallas Love    CLEAR     52  26  36 N14G22    30.26R
Philladelphia  CLOUDY    53  46  77 S6        29.96F
Wash National  CLOUDY    53  46  77 S8        29.94F
Baltimore      CLOUDY    53  46  77 S5        29.93F
Miami          PTCLDY    71  70  96 CALM      29.91S
Detroit        CLOUDY    33  20  58 NW14      30.12R WCI  23
Newark         CLOUDY    47  40  76 CALM      29.97F
Laguardia      CLOUDY    52  43  71 S6        29.97
J F K          CLOUDY    51  47  86 CALM      29.99F
Boston Logan   CLOUDY    46  42  86 S9        30.01F
Ft. Lauderdale PTCLDY    71  71 100 CALM      29.90S
Chicago O`Hare CLEAR     26  14  60 NW10      30.25R WCI  16
Chicago Midway PTCLDY    26  15  63 NW12      30.26R WCI  16
Houston Bush   MOCLDY    60  56  86 N12       30.09R
Houston Hobby  CLOUDY    60  56  86 NE15      30.07R
Nashville      CLEAR     43  34  70 N13       30.16R
Atlanta        PTCLDY    54  53  97 NW5       30.02F

$$

GAZ044-118-TXZ119-213-NCZ071-DCZ001-MDZ014-506-PAZ021-071-NJZ106-
NYZ176-178-MAZ106-OHZ011-021-055-MIZ076-KYZ091-ILZ014-INZ047-
MNZ060-ONZ431-220900-

...Gateway Observations for Savannah International...

CITY           SKY/WX    TMP DP  RH WIND       PRES   REMARKS
Savannah Arpt  FOG       61  61 100 W8        29.98S VSB 3/4
Atlanta        PTCLDY    54  53  97 NW5       30.02F
Charlotte      FOG       49  49 100 NW3       29.98S VSB 1/4
Dallas DFW     CLEAR     51  29  42 N14       30.25R
Houston Bush   MOCLDY    60  56  86 N12       30.09R
Wash National  CLOUDY    53  46  77 S8        29.94F
Wash Dulles    CLOUDY    53  46  77 S9        29.92F
Baltimore      CLOUDY    53  46  77 S5        29.93F
Philadelphia   CLOUDY    53  46  77 S6        29.96F
Newark         CLOUDY    47  40  76 CALM      29.97F
Laguardia      CLOUDY    52  43  71 S6        29.97
J F K          CLOUDY    51  47  86 CALM      29.99F
Boston         CLOUDY    46  42  86 S9        30.01F
Pittsburg      LGT RAIN  42  35  76 NW20      29.97R
Akron          CLOUDY    36  32  85 W8        30.03R WCI  30
Cleveland      FLURRIES  38  31  76 N9        30.07R WCI  31
Cincinnati     PTCLDY    31  29  92 NW8       30.15R WCI  23
Columbus       CLOUDY    36  33  89 NW12      30.10R WCI  28
Detroit        CLOUDY    33  20  58 NW14      30.12R WCI  23
Chicago O`Hare CLEAR     26  14  60 NW10      30.25R WCI  16
Minneapolis    CLOUDY    16  11  80 W3        30.36R
Indianapolis   PTCLDY    27  22  81 NW9       30.21R WCI  18
Toronto Canada CLOUDY    36  25  64 NW14      29.97R WCI  27

$$




USA.gov is the U.S. government's official web portal to all federal, state and local government web resources and services.